Location: Colonia Mina de C?rbuni
(46.1667°N, 22.7167°E)
Time: 11:17:44
(UTC+00:00)

RESURS DK-1 - Pass Details

Date: 04 February 2023
Orbit: 549 x 557 km, 69.9° (Epoch: 25 March)

Event Time Altitude Azimuth Distance (km) Brightness Sun altitude
Rises 16:31:35 0° 336° (NNW) 2,740 6.0 -9.6°
Reaches altitude 10° 16:33:52 10° 343° (NNW) 1,843 5.1 -10.0°
Maximum altitude 16:37:49 44° 57° (ENE) 774 2.6 -10.7°
Drops below altitude 10° 16:41:45 10° 130° (SE) 1,837 4.6 -11.4°
Sets 16:44:02 0° 137° (SE) 2,730 5.6 -11.7°
